Time,TemperatureF,DewpointF,PressureIn,WindDirection,WindDirectionDegrees,WindSpeedMPH,WindSpeedGustMPH,Humidity,HourlyPrecipIn,Conditions,Clouds,dailyrainin,SolarRadiationWatts/m^2,SoftwareType,DateUTC
2013-07-30 00:00:00,70.3,69.1,30.10,North,352,0.0,0.0,96,0.00,,OVC018,0.00,0.00,VWS V14.00,2013-07-30 04:00:00,
2013-07-30 01:00:00,69.6,68.4,30.09,North,352,0.0,0.0,96,0.00,,OVC018,0.00,0.00,VWS V14.00,2013-07-30 05:00:00,
2013-07-30 02:00:00,68.6,67.7,30.09,North,352,0.0,0.0,97,0.00,,OVC018,0.00,0.00,VWS V14.00,2013-07-30 06:00:00,
2013-07-30 03:00:00,67.2,66.3,30.09,North,352,0.0,0.0,97,0.00,,OVC018,0.00,0.00,VWS V14.00,2013-07-30 07:00:00,
2013-07-30 04:00:00,66.6,65.7,30.09,North,352,0.0,0.0,97,0.00,,OVC018,0.00,0.00,VWS V14.00,2013-07-30 08:00:00,
2013-07-30 05:00:00,65.0,64.1,30.11,NNE,22,0.0,0.0,97,0.00,,OVC018,0.00,0.00,VWS V14.00,2013-07-30 09:00:00,
2013-07-30 06:00:00,64.9,64.0,30.14,North,1,0.0,0.0,97,0.00,,OVC018,0.00,7.00,VWS V14.00,2013-07-30 10:00:00,
2013-07-30 07:00:00,65.8,64.9,30.15,North,1,0.0,0.0,97,0.00,,OVC018,0.00,39.00,VWS V14.00,2013-07-30 11:00:00,
2013-07-30 08:00:00,70.2,68.7,30.16,North,359,0.0,0.0,95,0.00,,OVC018,0.00,185.00,VWS V14.00,2013-07-30 12:00:00,
2013-07-30 09:00:00,75.0,71.9,30.16,NNW,331,0.0,0.0,90,0.00,,OVC018,0.00,497.00,VWS V14.00,2013-07-30 13:00:00,
2013-07-30 10:00:00,80.3,73.2,30.14,North,349,0.0,0.0,79,0.00,,OVC018,0.00,636.00,VWS V14.00,2013-07-30 14:00:00,
2013-07-30 11:00:00,84.2,72.5,30.14,NNW,337,0.0,0.0,68,0.00,,OVC018,0.00,749.00,VWS V14.00,2013-07-30 15:00:00,
2013-07-30 12:00:00,86.5,70.5,30.13,SE,127,0.0,0.0,59,0.00,,OVC018,0.00,847.00,VWS V14.00,2013-07-30 16:00:00,
2013-07-30 13:00:00,86.6,70.6,30.12,ESE,119,0.0,0.0,59,0.00,,OVC018,0.00,870.00,VWS V14.00,2013-07-30 17:00:00,
2013-07-30 14:00:00,87.1,69.0,30.10,SW,235,0.0,0.0,55,0.00,,OVC018,0.00,679.00,VWS V14.00,2013-07-30 18:00:00,
2013-07-30 15:00:00,89.7,68.0,30.09,NNW,330,0.0,0.0,49,0.00,,OVC018,0.00,677.00,VWS V14.00,2013-07-30 19:00:00,
2013-07-30 16:00:00,89.3,68.8,30.08,SW,218,0.0,0.0,51,0.00,,OVC018,0.00,657.00,VWS V14.00,2013-07-30 20:00:00,
2013-07-30 17:00:00,90.1,71.2,30.07,WSW,245,0.0,0.0,54,0.00,,OVC018,0.00,496.00,VWS V14.00,2013-07-30 21:00:00,
2013-07-30 18:00:00,91.1,73.8,30.06,NE,45,0.0,0.0,57,0.00,,OVC018,0.00,295.00,VWS V14.00,2013-07-30 22:00:00,
2013-07-30 19:00:00,86.2,76.1,30.07,NE,45,0.0,0.0,72,0.00,,OVC018,0.00,40.00,VWS V14.00,2013-07-30 23:00:00,
2013-07-30 20:00:00,77.2,73.4,30.09,WSW,257,0.0,0.0,88,0.00,,OVC018,0.00,0.00,VWS V14.00,2013-07-31 00:00:00,
2013-07-30 21:00:00,74.3,71.8,30.10,WSW,257,0.0,0.0,92,0.00,,OVC018,0.00,0.00,VWS V14.00,2013-07-31 01:00:00,
2013-07-30 22:00:00,73.5,72.0,30.10,WSW,257,0.0,0.0,95,0.00,,OVC018,0.00,0.00,VWS V14.00,2013-07-31 02:00:00,
2013-07-30 23:00:00,72.1,70.9,30.10,WSW,257,0.0,0.0,96,0.00,,OVC018,0.00,0.00,VWS V14.00,2013-07-31 03:00:00,